Location: Wapato
(46.4478°N, 120.4212°W)
Time: 10:14:26
(UTC+00:00)

Injun/Solrad 3 - Pass Details

Date: 16 May 2026
Orbit: 867 x 989 km, 66.8° (Epoch: 10 June)

Event Time Altitude Azimuth Distance (km) Brightness Sun altitude
Rises 22:35:05 0° 188° (S) 3,502 11.2 48.0°
Reaches altitude 10° 22:37:39 10° 181° (S) 2,583 10.6 47.6°
Maximum altitude 22:43:14 42° 113° (ESE) 1,307 8.9 46.7°
Drops below altitude 10° 22:49:01 10° 45° (NE) 2,680 10.0 45.8°
Sets 22:51:44 0° 38° (NE) 3,647 10.6 45.4°
